Regional Weather Roundup
Issued by NWS State College, PA

Home | Current Version | Previous Version | Text Only | Print | Product List | Glossary Off
Versions: 1 2 3 4 5 6 7 8 9 10 11 12 13 14 15 16 17 18 19 20 21 22 23 24 25 26 27 28 29 30 31 32 33 34 35 36 37 38 39 40 41 42 43 44 45 46 47 48 49 50

000
ASUS41 KCTP 021803
RWRCTP

REGIONAL WEATHER ROUNDUP
NATIONAL WEATHER SERVICE STATE COLLEGE PA
200 PM EDT THU JUL 02 2015

Note: "fair" indicates few or no clouds below 12,000 feet with no
significant weather and/or obstructions to visibility.

* = STATION THAT DOES NOT REPORT PRECIPITATION /E.G. RAIN...SNOW...ETC/
    THUNDER OR FOG.

PAZ002>004-007>009-013>016-020>023-029>032-021900-
WESTERN PENNSYLVANIA

CITY           SKY/WX    TMP DP  RH WIND       PRES   REMARKS
ERIE           SUNNY     67  57  70 N14       29.99S
MEADVILLE      PTSUNNY   69  56  62 N8        29.97F
FRANKLIN*      SUNNY     72  54  53 N6        29.97F
NEW CASTLE     MOCLDY    75  59  57 NW5       29.96F
BEAVER COUNTY  PTSUNNY   72  55  56 NE3       29.95F
BUTLER*        CLOUDY    73  57  56 N6        29.96F
PITTSBURGH INT CLOUDY    74  56  53 CALM      29.95S
PITTSBURGH     CLOUDY    71  55  56 NW8       29.94S
INDIANA*       MOSUNNY   73  61  64 NW7       29.98F
LATROBE        CLOUDY    73  57  56 W9        29.95F
WASHINGTON CO* NOT AVBL
$$

PAZ004>006-010>012-017>019-024>028-033>037-041-042-045-046-049>053-021900-
CENTRAL PENNSYLVANIA

CITY           SKY/WX    TMP DP  RH WIND       PRES   REMARKS
BRADFORD       PTSUNNY   69  52  54 VRB5      29.97F
DUBOIS         CLOUDY    71  57  61 N6        29.95F
CLEARFIELD     PTSUNNY   73  56  54 CALM      29.94F
JOHNSTOWN      CLOUDY    69  55  60 NW10      29.97S
ALTOONA        CLOUDY    73  58  59 NE3       29.95S
STATE COLLEGE  MOSUNNY   73  57  56 CALM      29.94F
WILLIAMSPORT   MOSUNNY   77  57  50 NW3       29.91S
SELINSGROVE    PTSUNNY   78  60  53 NE5       29.92S
FT INDIANTOWN  CLOUDY    74  61  62 S3        29.91S
CAPITAL CITY   CLOUDY    77  59  53 NE3       29.90F
HARRISBURG     CLOUDY    77  62  59 CALM      29.90S
YORK           CLOUDY    75  62  64 N3        29.91S
$$

PAZ038>040-043-044-047-048-054-055-060>062-067>071-021900-
EASTERN PENNSYLVANIA

CITY           SKY/WX    TMP DP  RH WIND       PRES   REMARKS
SCRANTON       PTSUNNY   77  57  50 NE5       29.93S
MOUNT POCONO   PTSUNNY   73  55  53 VRB3      29.95S
ALLENTOWN      CLOUDY    79  58  48 CALM      29.90F
QUAKERTOWN*    CLOUDY    75  63  64 E3        29.92S
READING        CLOUDY    76  62  62 S5        29.90S
LANCASTER      CLOUDY    74  63  68 CALM      29.90S
COATESVILLE    NOT AVBL
POTTSTOWN      CLOUDY    75  61  61 CALM      29.92F
BLUE BELL      NOT AVBL
DOYLESTOWN     CLOUDY    74  60  61 CALM      29.90F
WILLOW GROVE   NOT AVBL
NORTH PHILA    CLOUDY    74  59  59 E7        29.92S
PHILADELPHIA   CLOUDY    73  63  70 NE3       29.90F
$$



USA.gov is the U.S. government's official web portal to all federal, state and local government web resources and services.